« Back
NWS Peachtree City, Ga » Text Product » GA Regional Weather Roundup


Printer-friendly Version
Current Version              Previous Versions:   1  2  3  4  5  6  7  8  9  

Regional Weather Roundup

921
ASUS42 KFFC 210003
RWRGA
WEATHER ROUNDUP FOR GEORGIA
NATIONAL WEATHER SERVICE PEACHTREE CITY GA
700 PM EST SAT DEC 20 2014

NOTE: "FAIR" INDICATES FEW OR NO CLOUDS BELOW 12,000 FEET WITH NO
SIGNIFICANT WEATHER AND/OR OBSTRUCTIONS TO VISIBILITY.

* = USE WITH CAUTION. THE STATIONS MARKED WITH AN ASTERISK MAY NOT
REPORT WEATHER SUCH AS PRECIPITATION, FOG, OR THUNDER AND ARE NOT
QUALITY CONTROLLED BY NWS.

THE REMARK "TC" DENOTES TEMPERATURE READING IN DEGREES CELSIUS.

GAZ001>058-210100-
NORTH GEORGIA

CITY           SKY/WX    TMP DP  RH WIND       PRES   REMARKS
ATLANTA        CLOUDY    51  45  79 NE8       30.18R HAZE
6HR MIN TEMP:  50; 6HR MAX TEMP:  52;

ATHENS         CLOUDY    45  44  97 NE6       30.20R FOG
6HR MIN TEMP:  45; 6HR MAX TEMP:  49;

CHAMBLEE       CLOUDY    49  44  83 CALM      30.18R
6HR MIN TEMP:  49; 6HR MAX TEMP:  50;

PEACHTREE CITY CLOUDY    51  46  83 N3        30.19R HAZE
6HR MIN TEMP:  50; 6HR MAX TEMP:  53;

ROME           MOCLDY    44  42  93 CALM      30.20R
6HR MIN TEMP:  43; 6HR MAX TEMP:  47;

WEST ATLANTA   CLOUDY    50  45  83 N3        30.18R
6HR MIN TEMP:  48; 6HR MAX TEMP:  51;

GAINESVILLE    CLOUDY    45  41  86 E6        30.20R FOG
6HR MIN TEMP:  45; 6HR MAX TEMP:  46;

CARTERSVILLE   CLOUDY    46  39  76 N5        30.21R
6HR MIN TEMP:  43; 6HR MAX TEMP:  48;



CITY           SKY/WX    TMP DP  RH WIND       PRES   REMARKS
DALTON*        CLOUDY    43  37  81 CALM      30.21R
LAWRENCEVILLE* CLOUDY    46  37  71 NE5       30.18R FOG
KENNESAW*      CLOUDY    46  39  76 CALM      30.22R FOG
$$

GAZ059>098-102>109-210100-
CENTRAL GEORGIA

CITY           SKY/WX    TMP DP  RH WIND       PRES   REMARKS
AUGUSTA-BUSH   CLOUDY    50  47  89 NE9       30.21R FOG
6HR MIN TEMP:  50; 6HR MAX TEMP:  55;

AUGUSTA-DANIEL CLOUDY    50  49  96 NE9       30.21R FOG
6HR MIN TEMP:  50; 6HR MAX TEMP:  54;

COLUMBUS       CLOUDY    52  48  86 NE3       30.17R
6HR MIN TEMP:  50; 6HR MAX TEMP:  53;

MACON          CLOUDY    51  51 100 E3        30.18R FOG
6HR MIN TEMP:  51; 6HR MAX TEMP:  53;

ROBINS AFB     CLOUDY    52  51  95 N2        30.15F FOG


CITY           SKY/WX    TMP DP  RH WIND       PRES   REMARKS
LAGRANGE*      CLOUDY    54  50  87 CALM      30.18R
SYLVANIA*      CLOUDY    52  52  99 E6        30.20R
MILLEDGEVILLE* CLOUDY    52  52 100 E3        30.18S FOG
$$

GAZ099>101-110>166-210100-
SOUTH GEORGIA

CITY           SKY/WX    TMP DP  RH WIND       PRES   REMARKS
SAVANNAH       CLOUDY    54  50  86 NE6       30.19R
6HR MIN TEMP:  54; 6HR MAX TEMP:  56;

VALDOSTA       CLOUDY    57  49  74 NE9       30.13R
6HR MIN TEMP:  57; 6HR MAX TEMP:  63;

ALMA           CLOUDY    53  51  93 CALM      30.15R
6HR MIN TEMP:  53; 6HR MAX TEMP:  60;

ST SIMONS      CLOUDY    57  53  86 N10       30.15R
6HR MIN TEMP:  56; 6HR MAX TEMP:  63;

FT STEWART     CLOUDY    55  51  88 NE6       30.15R
ALBANY         CLOUDY    55  51  86 NE6       30.17R
HUNTER AFB     DRIZZLE   55  52  88 N8        30.16R
MOODY AFB      LGT RAIN  55  50  82 NE3       30.13R
BRUNSWICK      CLOUDY    55  52  88 NE8       30.15S


CITY           SKY/WX    TMP DP  RH WIND       PRES   REMARKS
BAINBRIDGE*    MOCLDY    59  54  82 N8        30.12F
MOULTRIE*      CLOUDY    55  52  88 NE6       30.14R
VIDALIA*       CLOUDY    54  52  94 NE6       30.17R
WAYCROSS*      DRIZZLE   59  55  87 CALM      30.15R
DOUGLAS*       CLOUDY    55  52  88 NE7       30.16S
$$



USA.gov is the U.S. government's official web portal to all federal, state and local government web resources and services.